This is the latest recevied weather packets stored in our database for station/object M0UPS-13. If no packets are shown the sender has not sent any weather packets the latest 1 day(s).
| Time | Temp. | Humidity | Pressure | Rain* | Wind** | Luminosity | Snow |
|---|---|---|---|---|---|---|---|
| 1778028302 | 10.56° C | 71% | 1013.1 hPa | 0 mm | 1.34 m/s, 54° | 0 W/m² | - |
| 1778028003 | 10.56° C | 71% | 1013.4 hPa | 0 mm | 0.89 m/s, 173° | 0 W/m² | - |
| 1778027702 | 11.11° C | 71% | 1013.3 hPa | 0 mm | 0.45 m/s, 316° | 0 W/m² | - |
| 1778027402 | 11.11° C | 71% | 1013.3 hPa | 0 mm | 0.45 m/s, 316° | 0 W/m² | - |
| 1778027102 | 11.11° C | 70% | 1013.3 hPa | 0 mm | 0.45 m/s, 307° | 0 W/m² | - |
| 1778026802 | 11.11° C | 71% | 1013.4 hPa | 0 mm | 0.45 m/s, 305° | 0 W/m² | - |
| 1778026502 | 11.11° C | 70% | 1013.1 hPa | 0 mm | 0.89 m/s, 27° | 0 W/m² | - |
| 1778026202 | 11.11° C | 70% | 1013.4 hPa | 0 mm | 0.89 m/s, 3° | 0 W/m² | - |
| 1778025902 | 11.11° C | 70% | 1013.4 hPa | 0 mm | 0.45 m/s, 282° | 0 W/m² | - |
| 1778025603 | 11.11° C | 69% | 1013.4 hPa | 0 mm | 0.45 m/s, 308° | 0 W/m² | - |
| 1778025302 | 11.11° C | 69% | 1013.3 hPa | 0 mm | 0 m/s | 0 W/m² | - |
| 1778025002 | 11.11° C | 69% | 1013.2 hPa | 0 mm | 0.89 m/s, 322° | 0 W/m² | - |
| 1778024702 | 11.11° C | 69% | 1013.3 hPa | 0 mm | 0.89 m/s, 77° | 0 W/m² | - |
| 1778024402 | 11.11° C | 69% | 1013.3 hPa | 0 mm | 0.45 m/s, 339° | 0 W/m² | - |
| 1778024102 | 11.11° C | 69% | 1013.1 hPa | 0 mm | 0.45 m/s, 140° | 0 W/m² | - |
| 1778023802 | 11.11° C | 68% | 1013.2 hPa | 0 mm | 0.45 m/s, 69° | 0 W/m² | - |
| 1778023502 | 11.11° C | 68% | 1013.1 hPa | 0 mm | 2.68 m/s, 336° | 0 W/m² | - |
| 1778023202 | 11.67° C | 69% | 1013.1 hPa | 0 mm | 0.89 m/s, 326° | 0 W/m² | - |
| 1778022902 | 11.67° C | 69% | 1013.1 hPa | 0 mm | 1.34 m/s, 16° | 0 W/m² | - |
| 1778022602 | 11.67° C | 72% | 1013.4 hPa | 0 mm | 0.89 m/s, 353° | 0 W/m² | - |
| 1778022302 | 11.67° C | 74% | 1013.2 hPa | 0 mm | 1.34 m/s, 322° | 0 W/m² | - |
| 1778022002 | 11.67° C | 75% | 1013.3 hPa | 0 mm | 0.89 m/s, 292° | 0 W/m² | - |
| 1778021702 | 11.67° C | 75% | 1013.1 hPa | 0 mm | 0.45 m/s, 314° | 0 W/m² | - |
| 1778021402 | 11.67° C | 74% | 1013.2 hPa | 0 mm | 0.89 m/s, 329° | 0 W/m² | - |
| 1778021102 | 11.67° C | 74% | 1013.3 hPa | 0 mm | 0.89 m/s, 4° | 0 W/m² | - |
* Rain latest hour (hover to see other rain measurements)
** Current wind speed in m/s (hover to see current wind gust speed)